Dauntless Aviation
Airports North America Canada
CYLW
YLW

Kelowna International Airport

Kelowna, CANADA

Airport Info
Suggest Updated Information for this Airport

Location

Latitude / Longitude: 49°57'21"N / 119°22'40"W
  49°57.366'N / 119°22.68'W
  49.9561 / -119.3780

Nearby radio navigation aids

EX RUTLAND NDB. 335.5° 1.0nm from EX to field.
LW KELOWNA NDB. 147.1° 6.5nm from LW to field.

Runway Information

Runway 16 /34

Dimensions: 7300 x 200 ft.
Surface: ASP
 
Runway 16
Runway 34
Latitude: 49.966 49.946278
Longitude: -119.378961 -119.376461
Elevation: 1409 ft. 1409 ft.
Runway true heading: 166.6 346.6
 

Instrument Procedures

  Airport Diagram
  Parking Areas (Apron 1)
  Parking Areas (Apron 3)
Satellite photo at:
Airport distance calculator
From:
Weather Reports

METAR

CYLW

CYLW 110200Z AUTO 15005KT 9SM BKN028 02/M01 A3016 RMK SLP233
CWJV
17.4nm N
CWJV 110200Z AUTO 10005KT M02/M02 RMK AO1 SLP225 T10211021 50003
CWUS
25.6nm S
CWUS 110200Z AUTO 16007KT 01/M02 RMK AO1 SLP240 T00131021 51004
CYYF
30.4nm S
CYYF 110200Z 17013G19KT 15SM FEW020 BKN032 02/M01 A3021 RMK SC2SC4 SLP245

TAF

CYLW
TAF CYLW 110040Z 1101/1113 15008KT P6SM BKN030 TEMPO 1101/1103 SCT020 FM110300 15005KT P6SM SCT030 FM110700 15005KT P6SM BKN240 FM111000 17005KT P6SM -SN SCT040 OVC080 TEMPO 1110/1113 2SM -SN BKN040 OVC080 RMK FCST BASED ON AUTO OBS. NXT FCST BY 110700Z
CYYF
30.4nm S
TAF CYYF 110040Z 1101/1113 18010G20KT P6SM SCT030 BKN080 TEMPO 1101/1106 SCT080 FM110600 18015G25KT P6SM SCT100 BKN240 FM110900 18015G25KT P6SM -RASN SCT030 BKN080 BKN150 TEMPO 1109/1113 2SM -SN BKN020 OVC080 RMK NXT FCST BY 110700Z
Safelog

 

Dauntless Aviation

© 2007-2018 Dauntless Aviation, all rights reserved
Information provided via PilotNav comes from a variety of official and unofficial data sources. As errors are possible, do not use PilotNav for primary flight planning purposes. Verify any information that you receive via PilotNav with current and canonical charts and other official documents. The material in this database is subject to database copyrights held by Dauntless Aviation and may not be copied without the express permission of Dauntless Aviation - licenses for use of part of all of this data are available for purchase; enquire via the Dauntless Aviation helpdesk. A number of mechanisms and markers exist in the database to protect against and identify infringement / copyright. Automated queries against this website are stictly prohibited, and all activity is logged and analyzed.